Voltar ao catálogo

STARLINK-37560

AtivoComunicaçõesVLEO
NORAD 100036·PAYLOAD·🇺🇸 United States

Lançado Jul 14, 2026 de Cape Canaveral Space Force Station

Loading…

Próximas Passagens (próximas 24 horas)

TLE

AtualizadoSource: Space-Track

Época: Sep 14, 2026, 17:45 UTC

1 A0036U 26161J   26257.74005081  .00018634  00000-0  56065-3 0  9999
2 A0036  53.1611  24.8294 0000523  78.2552 281.8509 15.34434355  9724

Acompanhe STARLINK-37560 em tempo real com AllMySat

Download on the App Store